Погода в Хомутово

Украина / Донецкая область     47°15′17″N   38°08′17″E
темп.,
°C
ветер,
м/с
пор.,
м/с
влажн.,
%
обл.,
%
осадки,
мм/ч
давл.,
гПа
погр.,
м
21 апреля, ср
ср2100:00+9ююз81393100 0.5 1007794
03:00+9зюз81391100 0.6 1009635
06:00+8зюз6129418 0.1 1012432
09:00+12зюз69715 0.1 1015721
12:00+14юз796448 0.0 10161181
15:00+14юз79645 0.1 1017763
18:00+12юз610711 0.0 1018489
21:00+9юз49835 0.0 1020204
22 апреля, чт
чт2200:00+9юз34865 0.0 102077
03:00+8ююз33905 0.0 102136
06:00+8ююз22923 0.0 102117
09:00+12ююз22721 0.0 1022519
12:00+15ююз445966 0.1 10221185
15:00+15юз5551100 0.1 10221020
18:00+13юз4563100 0.0 1022377
21:00+10зюз35762 0.0 102391
23 апреля, пт
пт2300:00+9зюз34780 0.0 102255
03:00+8зюз33820 0.0 102235
06:00+8юз22840 0.0 102315
09:00+13ююз34674 0.0 1023483
12:00+15ююз55614 0.0 1022848
15:00+15юз56575 0.0 1021918
18:00+14ююз4564100 0.0 1019355
21:00+11юз2473100 0.0 101989
24 апреля, сб
сб2400:00+11юз3677100 0.1 1017187
03:00+10юз51178100 0.3 1017375
06:00+9юз399271 0.0 1016247
09:00+12зюз797171 0.1 1016886
12:00+9зсз487470 0.3 1017586
15:00+15зюз57425 0.3 10172128
18:00+12юз685650 0.0 1017726
21:00+10зюз5106937 0.1 1019325
25 апреля, вс
вс2500:00+8з3669100 0.0 1019122
03:00+6зсз3672100 0.0 1020136
06:00+5зсз3768100 0.0 1020243
09:00+8сз4552100 0.0 1020924
12:00+11зсз4538100 0.0 10201740
15:00+12з3536100 0.0 10192112
18:00+10юз5653100 0.0 1019541
21:00+8юз4864100 0.0 1019198